Regional Weather Roundup
Issued by NWS

Home | Current Version | Previous Version | Graphics & Text | Print | Product List | Glossary On
Versions: 1 2 3 4 5 6 7 8 9 10 11 12 13 14 15 16 17 18 19 20 21 22 23 24 25 26 27 28 29 30 31 32 33 34 35 36 37 38 39 40 41 42 43 44 45 46
000
ASUS45 KSLC 270710
RWRUT

UTAH REGIONAL WEATHER ROUNDUP
NATIONAL WEATHER SERVICE SALT LAKE CITY UT
1200 AM MST SAT DEC 27 2014

UTZ001>011-023>025-270800-

NORTHERN UTAH

CITY           SKY/WX    TMP DP  RH WIND       PRES   REMARKS
BRIGHAM CITY   PTCLDY    17  11  77 CALM      30.26R
HILL AFB       PTCLDY    18   9  68 E9        30.22S WCI   6
LOGAN          PTCLDY    11   7  84 CALM      30.25R
OGDEN          MOCLDY    16  10  77 S8        30.23R WCI   5
PROVO AIRPORT  CLOUDY    21  16  79 E6        30.23R WCI  14
SALT LAKE CITY PTCLDY    24  17  74 NW5       30.24R WCI  18
VERNAL         FLURRIES  20  16  84 W3        30.14R
WENDOVER       PTCLDY    27  10  50 NW18      30.25S WCI  13
HEBER CITY     CLOUDY    14  12  92 CALM      30.18R
WEST JORDAN    CLEAR     19  16  86 W8        30.24R WCI   9

$$

UTZ012>022-026-027-270800-

SOUTHERN/CENTRAL UTAH

CITY           SKY/WX    TMP DP  RH WIND       PRES   REMARKS
BLANDING       CLEAR     17  13  87 NE5       30.13S WCI  10
BRYCE CANYON   PTCLDY     3  -3  76 NW9       30.08R WCI -12
CEDAR CITY     CLOUDY    16  10  77 N6        30.16R WCI   7
DELTA          CLOUDY    20  16  85 SW3       30.23R
MILFORD        CLOUDY    16  11  80 CALM      30.20R
MOAB/CYNLANDS  CLOUDY    23  16  74 VRB3      30.13R
PRICE          PTCLDY    20   6  55 NW9       30.10R WCI   9
ST GEORGE      MOSUNNY   32  10  40 SW3       30.23R
KANAB          CLEAR     25   9  50 N14       30.18S WCI  13

$$

REGIONAL REPORTS     COLORADO/ARIZONA

CITY           SKY/WX    TMP DP  RH WIND       PRES   REMARKS
CRAIG, CO      CLOUDY     5   1  83 W5        30.09R WCI  -4
GRAND JUNCTION PTCLDY    12   6  77 E3        30.13R
RIFLE          PTCLDY     9   3  77 CALM      30.12R
MONTROSE       CLOUDY    17  15  92 SE5       30.11R WCI  10
CORTEZ         CLEAR     11   8  88 NE7       30.06R WCI   0
PAGE, AZ       PTCLDY    31   6  35 W6        30.12R WCI  25
GRAND CANYON   CLEAR     10   7  87 CALM      30.06S
KINGMAN        CLEAR     25  13  60 E8        30.17R WCI  16
FLAGSTAFF      CLEAR      9   5  84 CALM      30.03S

$$

REGIONAL REPORTS    NEVADA/IDAHO/WYOMING

CITY           SKY/WX    TMP DP  RH WIND       PRES   REMARKS
LAS VEGAS, NV  CLEAR     42   7  23 NW12      30.21R
ELY            CLOUDY    15  13  91 N9        30.20R WCI   3
ELKO           CLEAR     19  12  74 S3        30.27R
POCATELLO, ID  CLOUDY    20  18  92 W7        30.25R WCI  11
BURLEY         CLOUDY    25  19  78 W9        30.25R WCI  15
EVANSTON, WY   CLOUDY     8   4  83 SW7       30.10R WCI  -3
ROCK SPRINGS   LGT SNOW   9   7  92 SW7       30.08R FOG     WCI  -2

$$


USA.gov is the U.S. government's official web portal to all federal, state and local government web resources and services.